When you browse on this site, cookies collect data to enhance your experience and personalize the content and advertising you see.
Visit our Privacy Policy to learn more. By continuing to use the site, you agree to this use of cookies and data.

Hourly Weather Sankt Polten

Today, 11 August, Tuesday

Time Temperature Precipitation Wind Pressure Humidity
00:00 +22°C° 0 mm 1 mps 736 mmHg 82%
01:00 +21°C° 0 mm 1 mps 737 mmHg 82%
02:00 +21°C° 0 mm 1 mps 737 mmHg 83%
03:00 +20°C° 0 mm 1 mps 736 mmHg 84%
04:00 +20°C° 0 mm 1 mps 736 mmHg 85%
05:00 +21°C° 0 mm 1 mps 736 mmHg 83%
06:00 +22°C° 0 mm 1 mps 737 mmHg 81%
07:00 +21°C° 0 mm 0 mps 737 mmHg 79%
08:00 +25°C° 0 mm 1 mps 737 mmHg 73%
09:00 +26°C° 0 mm 1 mps 737 mmHg 67%
10:00 +28°C° 0 mm 2 mps 737 mmHg 61%
11:00 +29°C° 0.2 mm 2 mps 737 mmHg 60%
12:00 +30°C° 0.2 mm 2 mps 737 mmHg 58%
13:00 +30°C° 0.2 mm 2 mps 737 mmHg 56%
14:00 +30°C° 0.8 mm 2 mps 737 mmHg 61%
15:00 +29°C° 0.8 mm 2 mps 737 mmHg 67%
16:00 +28°C° 0.8 mm 2 mps 737 mmHg 72%
17:00 +27°C° 0.4 mm 1 mps 737 mmHg 77%
18:00 +25°C° 0.4 mm 1 mps 737 mmHg 81%
19:00 +24°C° 0.4 mm 1 mps 737 mmHg 86%
20:00 +23°C° 0.4 mm 1 mps 737 mmHg 88%
21:00 +22°C° 0.4 mm 1 mps 737 mmHg 90%
22:00 +21°C° 0.4 mm 1 mps 737 mmHg 92%
23:00 +21°C° 0 mm 1 mps 737 mmHg 92%

Tomorrow, 12 August, Wednesday

Time Temperature Precipitation Wind Pressure Humidity
00:00 +21°C° 0 mm 1 mps 737 mmHg 92%
01:00 +20°C° 0 mm 1 mps 737 mmHg 92%
02:00 +20°C° 0 mm 1 mps 737 mmHg 92%
03:00 +20°C° 0 mm 1 mps 737 mmHg 92%
04:00 +19°C° 0 mm 1 mps 737 mmHg 92%
05:00 +20°C° 0 mm 1 mps 737 mmHg 91%
06:00 +21°C° 0 mm 1 mps 737 mmHg 89%
07:00 +22°C° 0 mm 1 mps 737 mmHg 87%
08:00 +24°C° 0.1 mm 1 mps 738 mmHg 81%
09:00 +25°C° 0.1 mm 2 mps 738 mmHg 74%
10:00 +27°C° 0.1 mm 2 mps 738 mmHg 68%
11:00 +28°C° 0.3 mm 2 mps 738 mmHg 64%
12:00 +29°C° 0.3 mm 3 mps 738 mmHg 61%
13:00 +30°C° 0.3 mm 3 mps 737 mmHg 58%
14:00 +30°C° 0.1 mm 3 mps 737 mmHg 57%
15:00 +30°C° 0.1 mm 3 mps 737 mmHg 56%
16:00 +30°C° 0.1 mm 3 mps 737 mmHg 55%
17:00 +28°C° 0 mm 2 mps 737 mmHg 62%
18:00 +27°C° 0 mm 2 mps 737 mmHg 70%
19:00 +25°C° 0 mm 2 mps 737 mmHg 77%
20:00 +24°C° 0 mm 2 mps 737 mmHg 79%
21:00 +23°C° 0 mm 2 mps 737 mmHg 81%
22:00 +21°C° 0 mm 2 mps 737 mmHg 84%
23:00 +20°C° 0 mm 2 mps 737 mmHg 85%

Day after tomorrow, 13 August, Thursday

Time Temperature Precipitation Wind Pressure Humidity
00:00 +21°C° 0 mm 1 mps 737 mmHg 87%
01:00 +20°C° 0 mm 1 mps 737 mmHg 88%
02:00 +20°C° 0 mm 1 mps 737 mmHg 89%
03:00 +20°C° 0 mm 1 mps 736 mmHg 90%
04:00 +19°C° 0 mm 1 mps 736 mmHg 90%
05:00 +21°C° 0 mm 1 mps 736 mmHg 87%
06:00 +22°C° 0 mm 1 mps 736 mmHg 84%
07:00 +23°C° 0 mm 1 mps 736 mmHg 81%
08:00 +25°C° 0 mm 1 mps 736 mmHg 74%
09:00 +27°C° 0 mm 1 mps 736 mmHg 68%
10:00 +29°C° 0 mm 1 mps 736 mmHg 62%
11:00 +30°C° 0.3 mm 1 mps 736 mmHg 61%
12:00 +30°C° 0.3 mm 1 mps 735 mmHg 60%
13:00 +31°C° 0.3 mm 1 mps 735 mmHg 59%
14:00 +31°C° 0.4 mm 1 mps 735 mmHg 59%
15:00 +31°C° 0.4 mm 1 mps 735 mmHg 58%
16:00 +31°C° 0.4 mm 1 mps 734 mmHg 58%
17:00 +29°C° 0.9 mm 1 mps 734 mmHg 66%
18:00 +27°C° 0.9 mm 2 mps 734 mmHg 75%
19:00 +25°C° 0.9 mm 2 mps 734 mmHg 83%
20:00 +23°C° 0.9 mm 2 mps 735 mmHg 86%
21:00 +21°C° 0.9 mm 2 mps 735 mmHg 89%
22:00 +20°C° 0.9 mm 2 mps 735 mmHg 91%
23:00 +20°C° 0.3 mm 2 mps 735 mmHg 91%

14 August, Friday

Time Temperature Precipitation Wind Pressure Humidity
00:00 +20°C° 0.3 mm 2 mps 735 mmHg 91%
01:00 +20°C° 0.3 mm 1 mps 734 mmHg 91%
02:00 +20°C° 0.4 mm 1 mps 734 mmHg 92%
03:00 +20°C° 0.4 mm 1 mps 734 mmHg 92%
04:00 +20°C° 0.4 mm 1 mps 734 mmHg 92%
05:00 +20°C° 0.5 mm 1 mps 734 mmHg 92%
06:00 +21°C° 0.5 mm 1 mps 734 mmHg 92%
07:00 +21°C° 0.5 mm 1 mps 734 mmHg 91%
08:00 +22°C° 0.3 mm 1 mps 734 mmHg 89%
09:00 +23°C° 0.3 mm 2 mps 735 mmHg 87%
10:00 +23°C° 0.3 mm 2 mps 735 mmHg 85%
11:00 +24°C° 0.3 mm 3 mps 735 mmHg 83%
12:00 +24°C° 0.3 mm 3 mps 734 mmHg 81%
13:00 +25°C° 0.3 mm 4 mps 734 mmHg 79%
14:00 +25°C° 0.3 mm 4 mps 734 mmHg 79%
15:00 +25°C° 0.3 mm 4 mps 734 mmHg 80%
16:00 +23°C° 0.3 mm 4 mps 734 mmHg 81%
17:00 +24°C° 0.1 mm 3 mps 734 mmHg 84%
18:00 +22°C° 0.1 mm 3 mps 735 mmHg 87%
19:00 +21°C° 0.1 mm 2 mps 735 mmHg 90%
20:00 +20°C° 0.3 mm 3 mps 735 mmHg 91%
21:00 +20°C° 0.3 mm 3 mps 735 mmHg 92%
22:00 +19°C° 0.3 mm 3 mps 735 mmHg 94%
23:00 +19°C° 0.1 mm 3 mps 735 mmHg 94%

15 August, Saturday

Time Temperature Precipitation Wind Pressure Humidity
00:00 +19°C° 0.1 mm 2 mps 735 mmHg 95%
01:00 +19°C° 0.1 mm 2 mps 735 mmHg 95%
02:00 +19°C° 0.1 mm 2 mps 735 mmHg 96%
03:00 +19°C° 0.1 mm 2 mps 735 mmHg 96%
04:00 +19°C° 0.1 mm 2 mps 735 mmHg 96%
05:00 +19°C° 0 mm 2 mps 735 mmHg 94%
06:00 +20°C° 0 mm 2 mps 735 mmHg 93%
07:00 +20°C° 0 mm 2 mps 735 mmHg 91%
08:00 +21°C° 0 mm 3 mps 736 mmHg 85%
09:00 +24°C° 0 mm 3 mps 736 mmHg 80%
10:00 +25°C° 0 mm 3 mps 736 mmHg 74%
11:00 +26°C° 0.2 mm 3 mps 735 mmHg 70%
12:00 +27°C° 0.2 mm 2 mps 735 mmHg 66%
13:00 +28°C° 0.2 mm 2 mps 735 mmHg 62%
14:00 +28°C° 0.3 mm 2 mps 735 mmHg 63%
15:00 +27°C° 0.3 mm 2 mps 735 mmHg 64%
16:00 +27°C° 0.3 mm 1 mps 735 mmHg 65%
17:00 +26°C° 0.1 mm 1 mps 734 mmHg 72%
18:00 +24°C° 0.1 mm 1 mps 734 mmHg 79%
19:00 +20°C° 0.1 mm 0 mps 734 mmHg 85%
20:00 +19°C° 0 mm 0 mps 735 mmHg 86%
21:00 +21°C° 0 mm 1 mps 735 mmHg 87%
22:00 +20°C° 0 mm 1 mps 735 mmHg 87%
23:00 +20°C° 0 mm 1 mps 735 mmHg 87%

16 August, Sunday

Time Temperature Precipitation Wind Pressure Humidity
00:00 +19°C° 0 mm 1 mps 735 mmHg 87%
01:00 +19°C° 0 mm 1 mps 735 mmHg 87%
02:00 +18°C° 0 mm 1 mps 735 mmHg 87%
03:00 +16°C° 0 mm 0 mps 735 mmHg 88%
04:00 +15°C° 0 mm 0 mps 735 mmHg 89%
05:00 +17°C° 0 mm 0 mps 735 mmHg 86%
06:00 +18°C° 0 mm 0 mps 735 mmHg 84%
07:00 +19°C° 0 mm 0 mps 736 mmHg 82%
08:00 +22°C° 0 mm 1 mps 736 mmHg 73%
09:00 +24°C° 0 mm 1 mps 736 mmHg 64%
10:00 +26°C° 0 mm 1 mps 736 mmHg 55%
11:00 +27°C° 0 mm 2 mps 736 mmHg 53%
12:00 +27°C° 0 mm 2 mps 736 mmHg 51%
13:00 +28°C° 0 mm 2 mps 736 mmHg 49%
14:00 +28°C° 0 mm 2 mps 735 mmHg 50%
15:00 +28°C° 0 mm 2 mps 735 mmHg 51%
16:00 +28°C° 0 mm 3 mps 735 mmHg 52%
17:00 +26°C° 0 mm 2 mps 735 mmHg 61%
18:00 +25°C° 0 mm 2 mps 735 mmHg 69%
19:00 +23°C° 0 mm 2 mps 735 mmHg 77%
20:00 +21°C° 0 mm 2 mps 735 mmHg 79%
21:00 +20°C° 0 mm 2 mps 735 mmHg 82%
22:00 +20°C° 0 mm 2 mps 736 mmHg 84%
23:00 +19°C° 0 mm 2 mps 736 mmHg 86%
Show more